Вернуться в каталог

STARLINK-31522

АктивенСвязьVLEO
NORAD 59204·PAYLOAD·🇺🇸 United States

Запущен Mar 11, 2024 с Vandenberg Space Force Base

Loading…

Ближайшие Пролёты (ближайшие 24 часа)

TLE

СвежийSource: CelesTrak SupGP

Эпоха: Sep 14, 2026, 20:48 UTC

1 59204C 24046D   26257.86715278  .00001386  00000+0  40951-4 0  2579
2 59204  53.1602 355.9988 0001153  73.8669 244.0212 15.34381186    11

Отслеживайте STARLINK-31522 в реальном времени с AllMySat

Download on the App Store